Regional Weather Roundup
Issued by NWS

Home | Current Version | Previous Version | Graphics & Text | Print | Product List | Glossary On
Versions: 1 2 3 4 5 6 7 8 9 10 11 12 13 14 15 16 17 18 19 20 21 22 23 24 25 26 27 28 29 30 31 32 33 34 35 36 37 38 39 40 41 42 43 44 45 46 47 48 49 50
000
ASUS43 KLMK 140002
RWRKY
KENTUCKY REGIONAL WEATHER ROUNDUP
NATIONAL WEATHER SERVICE LOUISVILLE KY
800 PM EDT SUN JUL 13 2014

NOTE "FAIR" INDICATES FEW OR NO CLOUDS BELOW 12,000 FEET
WITH NO SIGNIFICANT WEATHER AND/OR OBSTRUCTIONS TO VISIBILITY.

KYZ001>023-026-027-061>063-070>075-140100-
WESTERN AND SOUTH CENTRAL KENTUCKY

CITY           SKY/WX    TMP DP  RH WIND       PRES   REMARKS
PADUCAH        SUNNY     91  74  57 SW6       29.93S HX 100
HENDERSON      MOSUNNY   86  73  66 W6        29.91S HX  93
OWENSBORO      MOSUNNY   88  73  60 W8        29.93S HX  95
HOPKINSVILLE   SUNNY     90  72  55 SW12      29.97S HX  96
BOWLING GREEN  SUNNY     91  68  46 SW9       29.96S HX  95
GLASGOW        NOT AVBL
$$

KYZ024-025-028>034-038-045-046-053-140100-
NORTH CENTRAL KENTUCKY

CITY           SKY/WX    TMP DP  RH WIND       PRES   REMARKS
LOUISVILLE/SDF MOSUNNY   84  71  65 N9        29.93R
LOUISVILLE/LOU PTSUNNY   82  71  69 N5        29.94R
FORT KNOX      MOSUNNY   88  72  58 SW7       29.93S HX  94
$$

KYZ035>037-039>044-047>052-055>060-089>105-140100-
NORTHEAST KENTUCKY

CITY           SKY/WX    TMP DP  RH WIND       PRES   REMARKS
LEXINGTON      MOSUNNY   86  69  56 SW8       29.95S HX  90
COVINGTON      CLOUDY    77  70  79 W7        29.95R
FRANKFORT      MOSUNNY   82  70  66 NW3       29.94R
$$

KYZ054-064>069-076>088-106>120-140100-
SOUTHEAST KENTUCKY

CITY           SKY/WX    TMP DP  RH WIND       PRES   REMARKS
JACKSON        CLOUDY    84  68  58 VRB3      29.99S
LONDON         PTCLDY    87  70  56 S12       30.01R HX  92
SOMERSET       PTCLDY    88  63  42 SW9       30.00R
MIDDLESBORO    PTCLDY    84  69  60 S5        30.04R
MONTICELLO     CLEAR     88  69  53 SW8       30.01R HX  92
$$



USA.gov is the U.S. government's official web portal to all federal, state and local government web resources and services.